Time,TemperatureF,DewpointF,PressureIn,WindDirection,WindDirectionDegrees,WindSpeedMPH,WindSpeedGustMPH,Humidity,HourlyPrecipIn,Conditions,Clouds,dailyrainin,SoftwareType,DateUTC
2013-02-27 00:00:00,79.0,-99.9,29.93,SSW,210,16.0,18.0,-999,-99.99,,,-99.99,,2013-02-27 05:00:00,
2013-02-27 00:22:00,79.0,-99.9,29.93,SSW,210,16.0,18.0,-999,-99.99,,,-99.99,,2013-02-27 05:22:00,
2013-02-27 00:42:00,79.0,-99.9,29.93,SSW,210,16.0,18.0,-999,-99.99,,,-99.99,,2013-02-27 05:42:00,
2013-02-27 00:52:00,79.0,-99.9,29.93,SSW,210,16.0,18.0,-999,-99.99,,,-99.99,,2013-02-27 05:52:00,
2013-02-27 01:00:00,79.0,-99.9,29.92,SW,220,16.0,18.0,-999,-99.99,,,-99.99,,2013-02-27 06:00:00,
2013-02-27 01:22:00,79.0,-99.9,29.92,SW,220,16.0,18.0,-999,-99.99,,,-99.99,,2013-02-27 06:22:00,
2013-02-27 01:33:00,79.0,-99.9,29.92,SW,220,16.0,18.0,-999,-99.99,,,-99.99,,2013-02-27 06:33:00,
2013-02-27 01:42:00,79.0,-99.9,29.92,SW,220,16.0,18.0,-999,-99.99,,,-99.99,,2013-02-27 06:42:00,
2013-02-27 01:52:00,79.0,-99.9,29.92,SW,220,16.0,18.0,-999,-99.99,,,-99.99,,2013-02-27 06:52:00,
2013-02-27 02:00:00,78.0,-99.9,29.91,SW,230,18.0,20.0,-999,-99.99,,,-99.99,,2013-02-27 07:00:00,
2013-02-27 02:22:00,78.0,-99.9,29.91,SW,230,18.0,20.0,-999,-99.99,,,-99.99,,2013-02-27 07:22:00,
2013-02-27 02:32:00,78.0,-99.9,29.91,SW,230,18.0,20.0,-999,-99.99,,,-99.99,,2013-02-27 07:32:00,
2013-02-27 02:42:00,78.0,-99.9,29.91,SW,230,18.0,20.0,-999,-99.99,,,-99.99,,2013-02-27 07:42:00,
2013-02-27 02:52:00,78.0,-99.9,29.91,SW,230,18.0,20.0,-999,-99.99,,,-99.99,,2013-02-27 07:52:00,
2013-02-27 03:00:00,78.0,-99.9,29.89,SW,220,18.0,21.0,-999,-99.99,,,-99.99,,2013-02-27 08:00:00,
2013-02-27 03:22:00,78.0,-99.9,29.89,SW,220,18.0,21.0,-999,-99.99,,,-99.99,,2013-02-27 08:22:00,
2013-02-27 03:32:00,78.0,-99.9,29.89,SW,220,18.0,21.0,-999,-99.99,,,-99.99,,2013-02-27 08:32:00,
2013-02-27 03:42:00,78.0,-99.9,29.89,SW,220,18.0,21.0,-999,-99.99,,,-99.99,,2013-02-27 08:42:00,
2013-02-27 03:53:00,78.0,-99.9,29.89,SW,220,18.0,21.0,-999,-99.99,,,-99.99,,2013-02-27 08:53:00,
2013-02-27 04:00:00,78.0,-99.9,29.89,SW,220,18.0,20.0,-999,-99.99,,,-99.99,,2013-02-27 09:00:00,
2013-02-27 04:22:00,78.0,-99.9,29.89,SW,220,18.0,20.0,-999,-99.99,,,-99.99,,2013-02-27 09:22:00,
2013-02-27 04:32:00,78.0,-99.9,29.89,SW,220,18.0,20.0,-999,-99.99,,,-99.99,,2013-02-27 09:32:00,
2013-02-27 04:42:00,78.0,-99.9,29.89,SW,220,18.0,20.0,-999,-99.99,,,-99.99,,2013-02-27 09:42:00,
2013-02-27 04:52:00,78.0,-99.9,29.89,SW,220,18.0,20.0,-999,-99.99,,,-99.99,,2013-02-27 09:52:00,
2013-02-27 05:00:00,76.0,-99.9,29.90,WNW,290,10.0,11.0,-999,-99.99,,,-99.99,,2013-02-27 10:00:00,
2013-02-27 05:22:00,76.0,-99.9,29.90,WNW,290,10.0,11.0,-999,-99.99,,,-99.99,,2013-02-27 10:22:00,
2013-02-27 05:33:00,76.0,-99.9,29.90,WNW,290,10.0,11.0,-999,-99.99,,,-99.99,,2013-02-27 10:33:00,
2013-02-27 05:42:00,76.0,-99.9,29.90,WNW,290,10.0,11.0,-999,-99.99,,,-99.99,,2013-02-27 10:42:00,
2013-02-27 05:53:00,76.0,-99.9,29.90,WNW,290,10.0,11.0,-999,-99.99,,,-99.99,,2013-02-27 10:53:00,
2013-02-27 06:00:00,76.0,-99.9,29.91,West,280,14.0,15.0,-999,-99.99,,,-99.99,,2013-02-27 11:00:00,
2013-02-27 06:22:00,76.0,-99.9,29.91,West,280,14.0,15.0,-999,-99.99,,,-99.99,,2013-02-27 11:22:00,
2013-02-27 06:32:00,76.0,-99.9,29.91,West,280,14.0,15.0,-999,-99.99,,,-99.99,,2013-02-27 11:32:00,
2013-02-27 06:42:00,76.0,-99.9,29.91,West,280,14.0,15.0,-999,-99.99,,,-99.99,,2013-02-27 11:42:00,
2013-02-27 06:52:00,76.0,-99.9,29.91,West,280,14.0,15.0,-999,-99.99,,,-99.99,,2013-02-27 11:52:00,
2013-02-27 07:00:00,75.0,-99.9,29.94,WNW,290,13.0,14.0,-999,-99.99,,,-99.99,,2013-02-27 12:00:00,
2013-02-27 07:22:00,75.0,-99.9,29.94,WNW,290,13.0,14.0,-999,-99.99,,,-99.99,,2013-02-27 12:22:00,
2013-02-27 07:33:00,75.0,-99.9,29.94,WNW,290,13.0,14.0,-999,-99.99,,,-99.99,,2013-02-27 12:33:00,
2013-02-27 07:42:00,75.0,-99.9,29.94,WNW,290,13.0,14.0,-999,-99.99,,,-99.99,,2013-02-27 12:42:00,
2013-02-27 07:53:00,75.0,-99.9,29.94,WNW,290,13.0,14.0,-999,-99.99,,,-99.99,,2013-02-27 12:53:00,
2013-02-27 08:00:00,74.0,-99.9,29.96,North,350,10.0,11.0,-999,-99.99,,,-99.99,,2013-02-27 13:00:00,
2013-02-27 08:22:00,74.0,-99.9,29.96,North,350,10.0,11.0,-999,-99.99,,,-99.99,,2013-02-27 13:22:00,
2013-02-27 08:32:00,74.0,-99.9,29.96,North,350,10.0,11.0,-999,-99.99,,,-99.99,,2013-02-27 13:32:00,
2013-02-27 08:42:00,74.0,-99.9,29.96,North,350,10.0,11.0,-999,-99.99,,,-99.99,,2013-02-27 13:42:00,
2013-02-27 08:53:00,74.0,-99.9,29.96,North,350,10.0,11.0,-999,-99.99,,,-99.99,,2013-02-27 13:53:00,
2013-02-27 09:00:00,74.0,-99.9,29.98,NNE,20,6.0,7.0,-999,-99.99,,,-99.99,,2013-02-27 14:00:00,
2013-02-27 09:22:00,74.0,-99.9,29.98,NNE,20,6.0,7.0,-999,-99.99,,,-99.99,,2013-02-27 14:22:00,
2013-02-27 09:32:00,74.0,-99.9,29.98,NNE,20,6.0,7.0,-999,-99.99,,,-99.99,,2013-02-27 14:32:00,
2013-02-27 09:42:00,74.0,-99.9,29.98,NNE,20,6.0,7.0,-999,-99.99,,,-99.99,,2013-02-27 14:42:00,
2013-02-27 09:53:00,74.0,-99.9,29.98,NNE,20,6.0,7.0,-999,-99.99,,,-99.99,,2013-02-27 14:53:00,
2013-02-27 10:00:00,74.0,-99.9,29.98,North,0,0.0,2.0,-999,-99.99,,,-99.99,,2013-02-27 15:00:00,
2013-02-27 10:23:00,74.0,-99.9,29.98,North,0,0.0,2.0,-999,-99.99,,,-99.99,,2013-02-27 15:23:00,
2013-02-27 10:32:00,74.0,-99.9,29.98,North,0,0.0,2.0,-999,-99.99,,,-99.99,,2013-02-27 15:32:00,
2013-02-27 10:42:00,74.0,-99.9,29.98,North,0,0.0,2.0,-999,-99.99,,,-99.99,,2013-02-27 15:42:00,
2013-02-27 10:52:00,74.0,-99.9,29.98,North,0,0.0,2.0,-999,-99.99,,,-99.99,,2013-02-27 15:52:00,
2013-02-27 11:00:00,74.0,-99.9,29.98,North,0,0.0,1.0,-999,-99.99,,,-99.99,,2013-02-27 16:00:00,
2013-02-27 11:22:00,74.0,-99.9,29.98,North,0,0.0,1.0,-999,-99.99,,,-99.99,,2013-02-27 16:22:00,
2013-02-27 11:32:00,74.0,-99.9,29.98,North,0,0.0,1.0,-999,-99.99,,,-99.99,,2013-02-27 16:32:00,
2013-02-27 11:42:00,74.0,-99.9,29.98,North,0,0.0,1.0,-999,-99.99,,,-99.99,,2013-02-27 16:42:00,
2013-02-27 11:52:00,74.0,-99.9,29.98,North,0,0.0,1.0,-999,-99.99,,,-99.99,,2013-02-27 16:52:00,
2013-02-27 12:00:00,75.0,-99.9,29.98,NNW,330,2.0,3.0,-999,-99.99,,,-99.99,,2013-02-27 17:00:00,
2013-02-27 12:22:00,75.0,-99.9,29.98,NNW,330,2.0,3.0,-999,-99.99,,,-99.99,,2013-02-27 17:22:00,
2013-02-27 12:32:00,75.0,-99.9,29.98,NNW,330,2.0,3.0,-999,-99.99,,,-99.99,,2013-02-27 17:32:00,
2013-02-27 12:42:00,75.0,-99.9,29.98,NNW,330,2.0,3.0,-999,-99.99,,,-99.99,,2013-02-27 17:42:00,
2013-02-27 12:52:00,75.0,-99.9,29.98,NNW,330,2.0,3.0,-999,-99.99,,,-99.99,,2013-02-27 17:52:00,
2013-02-27 13:00:00,75.0,-99.9,29.96,North,0,0.0,1.0,-999,-99.99,,,-99.99,,2013-02-27 18:00:00,
2013-02-27 13:22:00,75.0,-99.9,29.96,North,0,0.0,1.0,-999,-99.99,,,-99.99,,2013-02-27 18:22:00,
2013-02-27 13:32:00,75.0,-99.9,29.96,North,0,0.0,1.0,-999,-99.99,,,-99.99,,2013-02-27 18:32:00,
2013-02-27 13:42:00,75.0,-99.9,29.96,North,0,0.0,1.0,-999,-99.99,,,-99.99,,2013-02-27 18:42:00,
2013-02-27 13:52:00,75.0,-99.9,29.96,North,0,0.0,1.0,-999,-99.99,,,-99.99,,2013-02-27 18:52:00,
2013-02-27 14:00:00,76.0,-99.9,29.94,NE,50,3.0,5.0,-999,-99.99,,,-99.99,,2013-02-27 19:00:00,
2013-02-27 14:22:00,76.0,-99.9,29.94,NE,50,3.0,5.0,-999,-99.99,,,-99.99,,2013-02-27 19:22:00,
2013-02-27 14:32:00,76.0,-99.9,29.94,NE,50,3.0,5.0,-999,-99.99,,,-99.99,,2013-02-27 19:32:00,
2013-02-27 14:42:00,76.0,-99.9,29.94,NE,50,3.0,5.0,-999,-99.99,,,-99.99,,2013-02-27 19:42:00,
2013-02-27 14:52:00,76.0,-99.9,29.94,NE,50,3.0,5.0,-999,-99.99,,,-99.99,,2013-02-27 19:52:00,
2013-02-27 15:00:00,76.0,-99.9,29.93,NNW,330,3.0,5.0,-999,-99.99,,,-99.99,,2013-02-27 20:00:00,
2013-02-27 15:22:00,76.0,-99.9,29.93,NNW,330,3.0,5.0,-999,-99.99,,,-99.99,,2013-02-27 20:22:00,
2013-02-27 15:32:00,76.0,-99.9,29.93,NNW,330,3.0,5.0,-999,-99.99,,,-99.99,,2013-02-27 20:32:00,
2013-02-27 15:42:00,76.0,-99.9,29.93,NNW,330,3.0,5.0,-999,-99.99,,,-99.99,,2013-02-27 20:42:00,
2013-02-27 15:53:00,76.0,-99.9,29.93,NNW,330,3.0,5.0,-999,-99.99,,,-99.99,,2013-02-27 20:53:00,
2013-02-27 16:00:00,76.0,-99.9,29.91,NNW,330,6.0,7.0,-999,-99.99,,,-99.99,,2013-02-27 21:00:00,
2013-02-27 16:22:00,76.0,-99.9,29.91,NNW,330,6.0,7.0,-999,-99.99,,,-99.99,,2013-02-27 21:22:00,
2013-02-27 16:32:00,76.0,-99.9,29.91,NNW,330,6.0,7.0,-999,-99.99,,,-99.99,,2013-02-27 21:32:00,
2013-02-27 16:42:00,76.0,-99.9,29.91,NNW,330,6.0,7.0,-999,-99.99,,,-99.99,,2013-02-27 21:42:00,
2013-02-27 16:52:00,76.0,-99.9,29.91,NNW,330,6.0,7.0,-999,-99.99,,,-99.99,,2013-02-27 21:52:00,
2013-02-27 17:00:00,76.0,-99.9,29.92,NNW,340,5.0,6.0,-999,-99.99,,,-99.99,,2013-02-27 22:00:00,
2013-02-27 17:22:00,76.0,-99.9,29.92,NNW,340,5.0,6.0,-999,-99.99,,,-99.99,,2013-02-27 22:22:00,
2013-02-27 17:32:00,76.0,-99.9,29.92,NNW,340,5.0,6.0,-999,-99.99,,,-99.99,,2013-02-27 22:32:00,
2013-02-27 17:42:00,76.0,-99.9,29.92,NNW,340,5.0,6.0,-999,-99.99,,,-99.99,,2013-02-27 22:42:00,
2013-02-27 17:52:00,76.0,-99.9,29.92,NNW,340,5.0,6.0,-999,-99.99,,,-99.99,,2013-02-27 22:52:00,
2013-02-27 18:00:00,77.0,-99.9,29.93,North,360,3.0,6.0,-999,-99.99,,,-99.99,,2013-02-27 23:00:00,
2013-02-27 18:22:00,77.0,-99.9,29.93,North,360,3.0,6.0,-999,-99.99,,,-99.99,,2013-02-27 23:22:00,
2013-02-27 18:32:00,77.0,-99.9,29.93,North,360,3.0,6.0,-999,-99.99,,,-99.99,,2013-02-27 23:32:00,
2013-02-27 18:42:00,77.0,-99.9,29.93,North,360,3.0,6.0,-999,-99.99,,,-99.99,,2013-02-27 23:42:00,
2013-02-27 18:53:00,77.0,-99.9,29.93,North,360,3.0,6.0,-999,-99.99,,,-99.99,,2013-02-27 23:53:00,
2013-02-27 19:00:00,77.0,-99.9,29.94,North,360,6.0,7.0,-999,-99.99,,,-99.99,,2013-02-28 00:00:00,
2013-02-27 19:22:00,77.0,-99.9,29.94,North,360,6.0,7.0,-999,-99.99,,,-99.99,,2013-02-28 00:22:00,
2013-02-27 19:32:00,77.0,-99.9,29.94,North,360,6.0,7.0,-999,-99.99,,,-99.99,,2013-02-28 00:32:00,
2013-02-27 19:42:00,77.0,-99.9,29.94,North,360,6.0,7.0,-999,-99.99,,,-99.99,,2013-02-28 00:42:00,
2013-02-27 19:52:00,77.0,-99.9,29.94,North,360,6.0,7.0,-999,-99.99,,,-99.99,,2013-02-28 00:52:00,
2013-02-27 20:00:00,75.0,-99.9,29.96,North,350,14.0,15.0,-999,-99.99,,,-99.99,,2013-02-28 01:00:00,
2013-02-27 20:22:00,75.0,-99.9,29.96,North,350,14.0,15.0,-999,-99.99,,,-99.99,,2013-02-28 01:22:00,
2013-02-27 20:32:00,75.0,-99.9,29.96,North,350,14.0,15.0,-999,-99.99,,,-99.99,,2013-02-28 01:32:00,
2013-02-27 20:42:00,75.0,-99.9,29.96,North,350,14.0,15.0,-999,-99.99,,,-99.99,,2013-02-28 01:42:00,
2013-02-27 20:52:00,75.0,-99.9,29.96,North,350,14.0,15.0,-999,-99.99,,,-99.99,,2013-02-28 01:52:00,
2013-02-27 21:00:00,73.0,-99.9,29.98,North,360,15.0,16.0,-999,-99.99,,,-99.99,,2013-02-28 02:00:00,
2013-02-27 21:22:00,73.0,-99.9,29.98,North,360,15.0,16.0,-999,-99.99,,,-99.99,,2013-02-28 02:22:00,
2013-02-27 21:32:00,73.0,-99.9,29.98,North,360,15.0,16.0,-999,-99.99,,,-99.99,,2013-02-28 02:32:00,
2013-02-27 21:42:00,73.0,-99.9,29.98,North,360,15.0,16.0,-999,-99.99,,,-99.99,,2013-02-28 02:42:00,
2013-02-27 21:52:00,73.0,-99.9,29.98,North,360,15.0,16.0,-999,-99.99,,,-99.99,,2013-02-28 02:52:00,
2013-02-27 22:00:00,73.0,-99.9,29.98,NNE,20,5.0,6.0,-999,-99.99,,,-99.99,,2013-02-28 03:00:00,
2013-02-27 22:22:00,73.0,-99.9,29.98,NNE,20,5.0,6.0,-999,-99.99,,,-99.99,,2013-02-28 03:22:00,
2013-02-27 22:32:00,73.0,-99.9,29.98,NNE,20,5.0,6.0,-999,-99.99,,,-99.99,,2013-02-28 03:32:00,
2013-02-27 22:42:00,73.0,-99.9,29.98,NNE,20,5.0,6.0,-999,-99.99,,,-99.99,,2013-02-28 03:42:00,
2013-02-27 22:52:00,73.0,-99.9,29.98,NNE,20,5.0,6.0,-999,-99.99,,,-99.99,,2013-02-28 03:52:00,
2013-02-27 23:00:00,74.0,-99.9,29.97,West,270,3.0,5.0,-999,-99.99,,,-99.99,,2013-02-28 04:00:00,
2013-02-27 23:22:00,74.0,-99.9,29.97,West,270,3.0,5.0,-999,-99.99,,,-99.99,,2013-02-28 04:22:00,
2013-02-27 23:32:00,74.0,-99.9,29.97,West,270,3.0,5.0,-999,-99.99,,,-99.99,,2013-02-28 04:32:00,
2013-02-27 23:42:00,74.0,-99.9,29.97,West,270,3.0,5.0,-999,-99.99,,,-99.99,,2013-02-28 04:42:00,
2013-02-27 23:52:00,74.0,-99.9,29.97,West,270,3.0,5.0,-999,-99.99,,,-99.99,,2013-02-28 04:52:00,